,,Stat6,,Stat2,,Stat8,,Stat9,,Stat10,,Wind1,,Wind1,
time,status,PA1M_AVG,status,PR1M_SUM,status,RH1M_AVG,status,SR1M_AVG,status,TA1M_AVG,status,W1dAve1m,status,W1sAve1m,
2008-07-11, 00:00:01,VALID,918.583,VALID,0,VALID,100,VALID,-0.101885,VALID,18.734,VALID,129,VALID,0.818598,
2008-07-11, 00:01:01,VALID,918.577,VALID,0,VALID,100,VALID,-0.118866,VALID,18.7472,VALID,148,VALID,0.930043,
2008-07-11, 00:02:01,VALID,918.582,VALID,0,VALID,100,VALID,-0.101885,VALID,18.7467,VALID,153,VALID,0.468539,
2008-07-11, 00:03:00,VALID,918.575,VALID,0,VALID,100,VALID,-0.118866,VALID,18.7534,VALID,150,VALID,0.745427,
2008-07-11, 00:04:00,VALID,918.565,VALID,0,VALID,100,VALID,-0.101885,VALID,18.7667,VALID,149,VALID,0.886619,
2008-07-11, 00:05:00,VALID,918.559,VALID,0,VALID,100,VALID,-0.0679233,VALID,18.7764,VALID,146,VALID,0.0979421,
2008-07-11, 00:06:00,VALID,918.543,VALID,0,VALID,100,VALID,-0.0679233,VALID,18.7759,VALID,151,VALID,0.671474,
2008-07-11, 00:07:00,VALID,918.53,VALID,0,VALID,100,VALID,-0.0849042,VALID,18.7826,VALID,161,VALID,0.702009,
2008-07-11, 00:08:00,VALID,918.507,VALID,0,VALID,100,VALID,-0.118866,VALID,18.7831,VALID,146,VALID,1.15197,
2008-07-11, 00:09:00,VALID,918.491,VALID,0,VALID,100,VALID,-0.101885,VALID,18.7731,VALID,144,VALID,0.255095,
2008-07-11, 00:10:00,VALID,918.478,VALID,0,VALID,100,VALID,-0.118866,VALID,18.7868,VALID,167,VALID,0.192264,
2008-07-11, 00:11:00,VALID,918.452,VALID,0,VALID,100,VALID,-0.135847,VALID,18.7664,VALID,172,VALID,0.234766,
2008-07-11, 00:12:00,VALID,918.436,VALID,0,VALID,100,VALID,-0.152827,VALID,18.7632,VALID,164,VALID,0,
2008-07-11, 00:13:00,VALID,918.42,VALID,0,VALID,100,VALID,-0.101885,VALID,18.7602,VALID,159,VALID,0.00173611,
2008-07-11, 00:14:00,VALID,918.416,VALID,0,VALID,100,VALID,-0.101885,VALID,18.7472,VALID,158,VALID,0.43457,
2008-07-11, 00:15:00,VALID,918.396,VALID,0,VALID,100,VALID,-0.0849042,VALID,18.7372,VALID,170,VALID,0.694949,
2008-07-11, 00:16:00,VALID,918.391,VALID,0,VALID,100,VALID,-0.0849042,VALID,18.7375,VALID,154,VALID,0.820486,
2008-07-11, 00:17:00,VALID,918.376,VALID,0,VALID,100,VALID,-0.101885,VALID,18.7178,VALID,166,VALID,1.29028,
2008-07-11, 00:18:00,VALID,918.361,VALID,0,VALID,100,VALID,-0.135847,VALID,18.708,VALID,169,VALID,0.691692,
2008-07-11, 00:19:00,VALID,918.346,VALID,0,VALID,100,VALID,-0.101885,VALID,18.7083,VALID,159,VALID,1.37128,
2008-07-11, 00:20:00,VALID,918.345,VALID,0,VALID,100,VALID,-0.101885,VALID,18.7185,VALID,161,VALID,1.23656,
2008-07-11, 00:21:00,VALID,918.329,VALID,0,VALID,100,VALID,-0.118866,VALID,18.7015,VALID,152,VALID,1.28316,
2008-07-11, 00:22:00,VALID,918.307,VALID,0,VALID,100,VALID,-0.135847,VALID,18.6951,VALID,160,VALID,1.53569,
2008-07-11, 00:23:00,VALID,918.287,VALID,0,VALID,100,VALID,-0.135847,VALID,18.6923,VALID,161,VALID,1.17886,
2008-07-11, 00:24:00,VALID,918.263,VALID,0,VALID,100,VALID,-0.169808,VALID,18.706,VALID,161,VALID,1.42388,
2008-07-11, 00:25:00,VALID,918.244,VALID,0,VALID,100,VALID,-0.101885,VALID,18.6918,VALID,154,VALID,1.25438,
2008-07-11, 00:26:00,VALID,918.229,VALID,0,VALID,100,VALID,-0.0339617,VALID,18.6946,VALID,160,VALID,0.703316,
2008-07-11, 00:27:00,VALID,918.204,VALID,0,VALID,100,VALID,-0.0339617,VALID,18.6809,VALID,147,VALID,0.987602,
2008-07-11, 00:28:00,VALID,918.198,VALID,0,VALID,100,VALID,-0.0169808,VALID,18.6679,VALID,133,VALID,1.06473,
2008-07-11, 00:29:00,VALID,918.192,VALID,0,VALID,100,VALID,-0.0169808,VALID,18.6582,VALID,137,VALID,0.706845,
2008-07-11, 00:30:00,VALID,918.178,VALID,0,VALID,100,VALID,-0.0169808,VALID,18.6355,VALID,135,VALID,0.864099,
2008-07-11, 00:31:00,VALID,918.174,VALID,0,VALID,100,VALID,-0.0339617,VALID,18.629,VALID,144,VALID,1.34661,
2008-07-11, 00:32:00,VALID,918.176,VALID,0,VALID,100,VALID,-0.0169808,VALID,18.6322,VALID,131,VALID,0.90516,
2008-07-11, 00:33:00,VALID,918.164,VALID,0,VALID,100,VALID,0,VALID,18.6258,VALID,145,VALID,1.06177,
2008-07-11, 00:34:00,VALID,918.149,VALID,0,VALID,100,VALID,-0.0339617,VALID,18.639,VALID,163,VALID,1.14863,
2008-07-11, 00:35:00,VALID,918.137,VALID,0,VALID,100,VALID,-0.0679233,VALID,18.6355,VALID,146,VALID,0.779119,
2008-07-11, 00:36:00,VALID,918.122,VALID,0,VALID,100,VALID,-0.0169808,VALID,18.6353,VALID,153,VALID,1.0958,
2008-07-11, 00:37:00,VALID,918.105,VALID,0,VALID,100,VALID,-0.0169808,VALID,18.6455,VALID,163,VALID,1.44643,
2008-07-11, 00:38:00,VALID,918.082,VALID,0,VALID,100,VALID,0,VALID,18.6422,VALID,156,VALID,0.716654,
2008-07-11, 00:39:00,VALID,918.093,VALID,0,VALID,100,VALID,0,VALID,18.6422,VALID,168,VALID,0.833274,
2008-07-11, 00:40:00,VALID,918.069,VALID,0,VALID,100,VALID,-0.0339617,VALID,18.6519,VALID,152,VALID,1.07013,
2008-07-11, 00:41:00,VALID,918.059,VALID,0,VALID,100,VALID,-0.0849042,VALID,18.6434,VALID,157,VALID,1.06286,
2008-07-11, 00:42:00,VALID,918.044,VALID,0,VALID,100,VALID,-0.135847,VALID,18.6534,VALID,157,VALID,1.71739,
2008-07-11, 00:43:00,VALID,918.021,VALID,0,VALID,100,VALID,-0.101885,VALID,18.6633,VALID,163,VALID,1.4544,
2008-07-11, 00:44:00,VALID,918.008,VALID,0,VALID,100,VALID,-0.101885,VALID,18.6594,VALID,152,VALID,0.977493,
2008-07-11, 00:45:00,VALID,917.992,VALID,0,VALID,100,VALID,-0.0849042,VALID,18.6693,VALID,160,VALID,1.16744,
2008-07-11, 00:46:00,VALID,917.964,VALID,0,VALID,100,VALID,-0.118866,VALID,18.6629,VALID,160,VALID,1.44786,
2008-07-11, 00:47:00,VALID,917.941,VALID,0,VALID,100,VALID,-0.135847,VALID,18.6691,VALID,169,VALID,1.47402,
2008-07-11, 00:48:00,VALID,917.937,VALID,0,VALID,100,VALID,-0.135847,VALID,18.6693,VALID,162,VALID,1.74271,
2008-07-11, 00:49:00,VALID,917.892,VALID,0,VALID,100,VALID,-0.118866,VALID,18.6656,VALID,164,VALID,1.24355,
2008-07-11, 00:50:00,VALID,917.86,VALID,0,VALID,100,VALID,-0.118866,VALID,18.6791,VALID,155,VALID,1.21211,
2008-07-11, 00:51:00,VALID,917.835,VALID,0,VALID,100,VALID,-0.152827,VALID,18.6726,VALID,162,VALID,0.716667,
2008-07-11, 00:52:00,VALID,917.797,VALID,0,VALID,100,VALID,-0.152827,VALID,18.6726,VALID,173,VALID,1.49581,
2008-07-11, 00:53:00,VALID,917.773,VALID,0,VALID,100,VALID,-0.101885,VALID,18.6726,VALID,168,VALID,1.26381,
2008-07-11, 00:54:00,VALID,917.75,VALID,0,VALID,100,VALID,-0.135847,VALID,18.6728,VALID,163,VALID,1.77035,
2008-07-11, 00:55:00,VALID,917.724,VALID,0,VALID,100,VALID,-0.135847,VALID,18.6795,VALID,162,VALID,1.30415,
2008-07-11, 00:56:00,VALID,917.703,VALID,0,VALID,100,VALID,-0.0509425,VALID,18.6714,VALID,158,VALID,1.47842,
2008-07-11, 00:57:00,VALID,917.667,VALID,0,VALID,100,VALID,-0.0169808,VALID,18.6582,VALID,155,VALID,1.4673,
2008-07-11, 00:58:00,VALID,917.669,VALID,0,VALID,100,VALID,0,VALID,18.648,VALID,156,VALID,1.0705,
2008-07-11, 00:59:00,VALID,917.651,VALID,0,VALID,100,VALID,0.0339617,VALID,18.6647,VALID,170,VALID,1.28852,
2008-07-11, 01:00:00,VALID,917.633,VALID,0,VALID,100,VALID,-0.0169808,VALID,18.6742,VALID,165,VALID,1.73385,
2008-07-11, 01:01:00,VALID,917.614,VALID,0,VALID,100,VALID,-0.0339617,VALID,18.6876,VALID,167,VALID,1.42702,
2008-07-11, 01:02:00,VALID,917.602,VALID,0,VALID,100,VALID,-0.0169808,VALID,18.6874,VALID,159,VALID,1.17878,
2008-07-11, 01:03:00,VALID,917.583,VALID,0,VALID,100,VALID,-0.0169808,VALID,18.6841,VALID,167,VALID,1.33878,
2008-07-11, 01:04:00,VALID,917.571,VALID,0,VALID,100,VALID,-0.0339617,VALID,18.6881,VALID,168,VALID,1.47347,
2008-07-11, 01:05:00,VALID,917.572,VALID,0,VALID,100,VALID,-0.0509425,VALID,18.6874,VALID,166,VALID,1.59375,
2008-07-11, 01:06:00,VALID,917.552,VALID,0,VALID,100,VALID,0,VALID,18.6906,VALID,169,VALID,1.4016,
2008-07-11, 01:07:00,VALID,917.55,VALID,0,VALID,100,VALID,-0.0339617,VALID,18.6974,VALID,179,VALID,1.42383,
2008-07-11, 01:08:00,VALID,917.541,VALID,0,VALID,100,VALID,-0.0339617,VALID,18.6874,VALID,165,VALID,1.65488,
2008-07-11, 01:09:00,VALID,917.543,VALID,0,VALID,100,VALID,-0.0169808,VALID,18.6744,VALID,159,VALID,1.64281,
2008-07-11, 01:10:00,VALID,917.552,VALID,0,VALID,100,VALID,-0.0169808,VALID,18.6719,VALID,160,VALID,1.72584,
2008-07-11, 01:11:00,VALID,917.533,VALID,0,VALID,100,VALID,-0.0679233,VALID,18.6751,VALID,167,VALID,1.95076,
2008-07-11, 01:12:00,VALID,917.55,VALID,0,VALID,100,VALID,-0.0509425,VALID,18.6781,VALID,159,VALID,1.90521,
2008-07-11, 01:13:00,VALID,917.55,VALID,0,VALID,100,VALID,-0.0339617,VALID,18.6781,VALID,161,VALID,1.91352,
2008-07-11, 01:14:00,VALID,917.546,VALID,0,VALID,100,VALID,-0.0169808,VALID,18.6876,VALID,155,VALID,1.57603,
2008-07-11, 01:15:00,VALID,917.528,VALID,0,VALID,100,VALID,-0.0339617,VALID,18.6811,VALID,149,VALID,1.75195,
2008-07-11, 01:16:00,VALID,917.513,VALID,0,VALID,100,VALID,-0.0169808,VALID,18.6714,VALID,145,VALID,1.67045,
2008-07-11, 01:17:00,VALID,917.509,VALID,0,VALID,100,VALID,-0.0509425,VALID,18.6716,VALID,156,VALID,1.45313,
2008-07-11, 01:18:00,VALID,917.511,VALID,0,VALID,100,VALID,-0.0169808,VALID,18.6647,VALID,154,VALID,1.85461,
2008-07-11, 01:19:00,VALID,917.501,VALID,0,VALID,100,VALID,-0.0509425,VALID,18.6654,VALID,160,VALID,2.0971,
2008-07-11, 01:20:00,VALID,917.497,VALID,0,VALID,100,VALID,-0.0339617,VALID,18.6679,VALID,151,VALID,2.38777,
2008-07-11, 01:21:00,VALID,917.489,VALID,0,VALID,100,VALID,-0.0169808,VALID,18.658,VALID,154,VALID,1.99785,
2008-07-11, 01:22:00,VALID,917.478,VALID,0,VALID,100,VALID,-0.0679233,VALID,18.6644,VALID,164,VALID,2.15643,
2008-07-11, 01:23:00,VALID,917.468,VALID,0,VALID,100,VALID,0,VALID,18.6779,VALID,164,VALID,2.20513,
2008-07-11, 01:24:00,VALID,917.442,VALID,0,VALID,100,VALID,0,VALID,18.6679,VALID,161,VALID,1.80227,
2008-07-11, 01:25:00,VALID,917.444,VALID,0,VALID,100,VALID,0,VALID,18.6712,VALID,165,VALID,1.84108,
2008-07-11, 01:26:00,VALID,917.42,VALID,0,VALID,100,VALID,-0.135847,VALID,18.6761,VALID,156,VALID,1.71431,
2008-07-11, 01:27:00,VALID,917.4,VALID,0,VALID,100,VALID,-0.118866,VALID,18.6631,VALID,171,VALID,1.26829,
2008-07-11, 01:28:00,VALID,917.39,VALID,0,VALID,100,VALID,-0.20377,VALID,18.6705,VALID,159,VALID,2.63628,
2008-07-11, 01:29:00,VALID,917.38,VALID,0,VALID,100,VALID,-0.101885,VALID,18.6436,VALID,163,VALID,2.1795,
2008-07-11, 01:30:00,VALID,917.379,VALID,0,VALID,100,VALID,-0.118866,VALID,18.6269,VALID,155,VALID,2.40163,
2008-07-11, 01:31:00,VALID,917.375,VALID,0,VALID,100,VALID,-0.118866,VALID,18.6374,VALID,161,VALID,1.9541,
2008-07-11, 01:32:00,VALID,917.375,VALID,0,VALID,100,VALID,-0.152827,VALID,18.6239,VALID,152,VALID,1.78544,
2008-07-11, 01:33:00,VALID,917.358,VALID,0,VALID,100,VALID,-0.101885,VALID,18.6307,VALID,158,VALID,2.05124,
2008-07-11, 01:34:00,VALID,917.366,VALID,0,VALID,100,VALID,-0.135847,VALID,18.6239,VALID,156,VALID,1.85334,
2008-07-11, 01:35:00,VALID,917.361,VALID,0,VALID,100,VALID,-0.135847,VALID,18.6237,VALID,158,VALID,1.73628,
2008-07-11, 01:36:00,VALID,917.363,VALID,0,VALID,100,VALID,-0.118866,VALID,18.6334,VALID,154,VALID,2.1875,
2008-07-11, 01:37:00,VALID,917.362,VALID,0,VALID,100,VALID,-0.101885,VALID,18.6534,VALID,150,VALID,1.75874,
2008-07-11, 01:38:00,VALID,917.343,VALID,0,VALID,100,VALID,-0.101885,VALID,18.6499,VALID,149,VALID,1.56181,
2008-07-11, 01:39:00,VALID,917.336,VALID,0,VALID,100,VALID,-0.101885,VALID,18.6499,VALID,116,VALID,1.37538,
2008-07-11, 01:40:00,VALID,917.308,VALID,0,VALID,100,VALID,-0.135847,VALID,18.6568,VALID,146,VALID,1.46254,
2008-07-11, 01:41:00,VALID,917.306,VALID,0,VALID,100,VALID,-0.118866,VALID,18.6529,VALID,152,VALID,1.20647,
2008-07-11, 01:42:00,VALID,917.282,VALID,0,VALID,100,VALID,-0.101885,VALID,18.6499,VALID,149,VALID,1.23704,
2008-07-11, 01:43:00,VALID,917.267,VALID,0,VALID,100,VALID,-0.118866,VALID,18.6434,VALID,159,VALID,1.68732,
2008-07-11, 01:44:00,VALID,917.248,VALID,0,VALID,100,VALID,-0.135847,VALID,18.6466,VALID,141,VALID,1.43986,
2008-07-11, 01:45:00,VALID,917.235,VALID,0,VALID,100,VALID,-0.118866,VALID,18.6564,VALID,143,VALID,1.26381,
2008-07-11, 01:46:00,VALID,917.223,VALID,0,VALID,100,VALID,-0.0849042,VALID,18.6564,VALID,143,VALID,1.28945,
2008-07-11, 01:47:00,VALID,917.219,VALID,0,VALID,100,VALID,-0.152827,VALID,18.6529,VALID,136,VALID,1.6617,
2008-07-11, 01:48:00,VALID,917.214,VALID,0,VALID,100,VALID,-0.118866,VALID,18.6598,VALID,146,VALID,1.75127,
2008-07-11, 01:49:00,VALID,917.201,VALID,0,VALID,100,VALID,-0.135847,VALID,18.6596,VALID,149,VALID,0.9641,
2008-07-11, 01:50:00,VALID,917.206,VALID,0,VALID,100,VALID,-0.135847,VALID,18.6693,VALID,146,VALID,1.09783,
2008-07-11, 01:51:00,VALID,917.202,VALID,0,VALID,100,VALID,-0.101885,VALID,18.6529,VALID,139,VALID,1.21261,
2008-07-11, 01:52:00,VALID,917.201,VALID,0,VALID,100,VALID,-0.152827,VALID,18.6466,VALID,147,VALID,1.75664,
2008-07-11, 01:53:00,VALID,917.192,VALID,0,VALID,100,VALID,-0.101885,VALID,18.6564,VALID,153,VALID,1.34801,
2008-07-11, 01:54:00,VALID,917.187,VALID,0,VALID,100,VALID,-0.135847,VALID,18.6531,VALID,155,VALID,1.16007,
2008-07-11, 01:55:00,VALID,917.175,VALID,0,VALID,100,VALID,-0.101885,VALID,18.6626,VALID,158,VALID,1.45153,
2008-07-11, 01:56:00,VALID,917.175,VALID,0,VALID,100,VALID,-0.135847,VALID,18.6432,VALID,151,VALID,1.42778,
2008-07-11, 01:57:00,VALID,917.16,VALID,0,VALID,100,VALID,-0.135847,VALID,18.6529,VALID,150,VALID,1.15799,
2008-07-11, 01:58:00,VALID,917.133,VALID,0,VALID,100,VALID,-0.118866,VALID,18.6464,VALID,152,VALID,1.14629,
2008-07-11, 01:59:00,VALID,917.129,VALID,0,VALID,100,VALID,-0.118866,VALID,18.6496,VALID,156,VALID,0.913542,
2008-07-11, 02:00:00,VALID,917.124,VALID,0,VALID,100,VALID,-0.101885,VALID,18.6367,VALID,157,VALID,1.02053,
2008-07-11, 02:01:00,VALID,917.132,VALID,0,VALID,100,VALID,-0.101885,VALID,18.6302,VALID,161,VALID,0.568132,
2008-07-11, 02:02:00,VALID,917.131,VALID,0,VALID,100,VALID,-0.118866,VALID,18.6401,VALID,166,VALID,0.678445,
2008-07-11, 02:03:00,VALID,917.119,VALID,0,VALID,100,VALID,-0.135847,VALID,18.6302,VALID,169,VALID,1.04297,
2008-07-11, 02:04:00,VALID,917.122,VALID,0,VALID,100,VALID,-0.101885,VALID,18.6272,VALID,169,VALID,1.02344,
2008-07-11, 02:05:00,VALID,917.108,VALID,0,VALID,100,VALID,-0.118866,VALID,18.6235,VALID,162,VALID,0.953947,
2008-07-11, 02:06:00,VALID,917.088,VALID,0,VALID,100,VALID,-0.152827,VALID,18.6302,VALID,163,VALID,0.919643,
2008-07-11, 02:07:00,VALID,917.066,VALID,0,VALID,100,VALID,-0.135847,VALID,18.6204,VALID,152,VALID,0.913885,
2008-07-11, 02:08:00,VALID,917.066,VALID,0,VALID,100,VALID,-0.118866,VALID,18.6137,VALID,160,VALID,0.475446,
2008-07-11, 02:09:00,VALID,917.041,VALID,0,VALID,100,VALID,-0.101885,VALID,18.6242,VALID,168,VALID,0.00280449,
2008-07-11, 02:10:00,VALID,917.045,VALID,0,VALID,100,VALID,-0.135847,VALID,18.6142,VALID,163,VALID,0.0381324,
2008-07-11, 02:11:00,VALID,917.033,VALID,0,VALID,100,VALID,-0.0169808,VALID,18.6265,VALID,117,VALID,0.0362216,
2008-07-11, 02:12:00,VALID,917.029,VALID,0,VALID,100,VALID,-0.0339617,VALID,18.626,VALID,193,VALID,0,
2008-07-11, 02:13:00,VALID,917.016,VALID,0,VALID,100,VALID,-0.0169808,VALID,18.6195,VALID,212,VALID,0.0474201,
2008-07-11, 02:14:00,VALID,917.02,VALID,0,VALID,100,VALID,-0.0169808,VALID,18.6197,VALID,218,VALID,0.268532,
2008-07-11, 02:15:00,VALID,917.007,VALID,0,VALID,100,VALID,-0.0169808,VALID,18.6163,VALID,166,VALID,0.0840278,
2008-07-11, 02:16:00,VALID,916.988,VALID,0,VALID,100,VALID,-0.0169808,VALID,18.6125,VALID,166,VALID,0,
2008-07-11, 02:17:00,VALID,916.979,VALID,0,VALID,100,VALID,-0.0169808,VALID,18.6093,VALID,166,VALID,0,
2008-07-11, 02:18:00,VALID,916.963,VALID,0,VALID,100,VALID,0,VALID,18.6125,VALID,166,VALID,0,
2008-07-11, 02:19:00,VALID,916.947,VALID,0,VALID,100,VALID,0,VALID,18.6031,VALID,163,VALID,0,
2008-07-11, 02:20:00,VALID,916.932,VALID,0,VALID,100,VALID,-0.0169808,VALID,18.5933,VALID,157,VALID,0.379278,
2008-07-11, 02:21:00,VALID,916.932,VALID,0,VALID,100,VALID,-0.0169808,VALID,18.5834,VALID,156,VALID,0.531944,
2008-07-11, 02:22:00,VALID,916.922,VALID,0,VALID,100,VALID,-0.0339617,VALID,18.5866,VALID,154,VALID,0.29742,
2008-07-11, 02:23:00,VALID,916.918,VALID,0,VALID,100,VALID,0,VALID,18.5866,VALID,151,VALID,0.21596,
2008-07-11, 02:24:00,VALID,916.907,VALID,0,VALID,100,VALID,0,VALID,18.5931,VALID,151,VALID,0.588728,
2008-07-11, 02:25:00,VALID,916.92,VALID,0,VALID,100,VALID,-0.0169808,VALID,18.5933,VALID,149,VALID,0.595846,
2008-07-11, 02:26:00,VALID,916.918,VALID,0,VALID,100,VALID,-0.0339617,VALID,18.5968,VALID,145,VALID,0.358445,
2008-07-11, 02:27:00,VALID,916.914,VALID,0,VALID,100,VALID,-0.0679233,VALID,18.5864,VALID,143,VALID,0.49907,
2008-07-11, 02:28:00,VALID,916.919,VALID,0,VALID,100,VALID,-0.0509425,VALID,18.5901,VALID,141,VALID,1.06658,
2008-07-11, 02:29:00,VALID,916.896,VALID,0,VALID,100,VALID,-0.0679233,VALID,18.5803,VALID,131,VALID,0.750521,
2008-07-11, 02:30:00,VALID,916.915,VALID,0,VALID,100,VALID,-0.0339617,VALID,18.5836,VALID,143,VALID,0.983648,
2008-07-11, 02:31:00,VALID,916.909,VALID,0,VALID,100,VALID,-0.0509425,VALID,18.5736,VALID,138,VALID,0.826042,
2008-07-11, 02:32:00,VALID,916.892,VALID,0,VALID,100,VALID,-0.0339617,VALID,18.5836,VALID,143,VALID,0.209028,
2008-07-11, 02:33:00,VALID,916.889,VALID,0,VALID,100,VALID,-0.0509425,VALID,18.5769,VALID,147,VALID,0.562109,
2008-07-11, 02:34:00,VALID,916.869,VALID,0,VALID,100,VALID,-0.0169808,VALID,18.5771,VALID,167,VALID,0.221168,
2008-07-11, 02:35:00,VALID,916.87,VALID,0,VALID,100,VALID,-0.0849042,VALID,18.5704,VALID,175,VALID,0.383176,
2008-07-11, 02:36:00,VALID,916.877,VALID,0,VALID,100,VALID,-0.0169808,VALID,18.5743,VALID,154,VALID,0,
2008-07-11, 02:37:00,VALID,916.861,VALID,0,VALID,100,VALID,-0.0509425,VALID,18.5713,VALID,153,VALID,0.180804,
2008-07-11, 02:38:00,VALID,916.875,VALID,0,VALID,100,VALID,-0.0339617,VALID,18.5581,VALID,141,VALID,0.54415,
2008-07-11, 02:39:00,VALID,916.876,VALID,0,VALID,100,VALID,-0.0339617,VALID,18.5512,VALID,145,VALID,1.002,
2008-07-11, 02:40:00,VALID,916.871,VALID,0,VALID,100,VALID,-0.0339617,VALID,18.5486,VALID,133,VALID,0.328497,
2008-07-11, 02:41:00,VALID,916.86,VALID,0,VALID,100,VALID,-0.135847,VALID,18.5398,VALID,145,VALID,0.705611,
2008-07-11, 02:42:00,VALID,916.863,VALID,0,VALID,100,VALID,-0.169808,VALID,18.5236,VALID,145,VALID,0.868331,
2008-07-11, 02:43:00,VALID,916.853,VALID,0,VALID,100,VALID,-0.101885,VALID,18.5169,VALID,155,VALID,0.359933,
2008-07-11, 02:44:00,VALID,916.843,VALID,0.2,VALID,100,VALID,-0.20377,VALID,18.5104,VALID,163,VALID,0.615513,
2008-07-11, 02:45:00,VALID,916.841,VALID,0,VALID,100,VALID,-0.152827,VALID,18.5104,VALID,129,VALID,0.245046,
2008-07-11, 02:46:00,VALID,916.823,VALID,0,VALID,100,VALID,-0.118866,VALID,18.5104,VALID,174,VALID,1.14996,
2008-07-11, 02:47:00,VALID,916.82,VALID,0,VALID,100,VALID,-0.135847,VALID,18.5169,VALID,172,VALID,1.43405,
2008-07-11, 02:48:00,VALID,916.8,VALID,0,VALID,100,VALID,-0.152827,VALID,18.5266,VALID,178,VALID,0.463315,
2008-07-11, 02:49:00,VALID,916.797,VALID,0,VALID,100,VALID,-0.118866,VALID,18.5366,VALID,153,VALID,0.620276,
2008-07-11, 02:50:00,VALID,916.798,VALID,0,VALID,100,VALID,-0.135847,VALID,18.5201,VALID,159,VALID,0.882212,
2008-07-11, 02:51:00,VALID,916.795,VALID,0,VALID,100,VALID,-0.118866,VALID,18.5134,VALID,147,VALID,0.699219,
2008-07-11, 02:52:00,VALID,916.808,VALID,0,VALID,100,VALID,-0.118866,VALID,18.5037,VALID,160,VALID,1.39807,
2008-07-11, 02:53:00,VALID,916.803,VALID,0,VALID,100,VALID,-0.152827,VALID,18.4842,VALID,158,VALID,1.06963,
2008-07-11, 02:54:00,VALID,916.822,VALID,0,VALID,100,VALID,-0.135847,VALID,18.4974,VALID,173,VALID,1.34023,
2008-07-11, 02:55:00,VALID,916.844,VALID,0,VALID,100,VALID,-0.101885,VALID,18.4939,VALID,149,VALID,0.815658,
2008-07-11, 02:56:00,VALID,916.843,VALID,0,VALID,100,VALID,-0.0679233,VALID,18.4997,VALID,167,VALID,0.481898,
2008-07-11, 02:57:00,VALID,916.859,VALID,0,VALID,100,VALID,-0.0339617,VALID,18.4958,VALID,170,VALID,0.445503,
2008-07-11, 02:58:00,VALID,916.857,VALID,0,VALID,100,VALID,-0.0169808,VALID,18.4865,VALID,173,VALID,0.860491,
2008-07-11, 02:59:00,VALID,916.862,VALID,0,VALID,100,VALID,-0.0509425,VALID,18.4863,VALID,193,VALID,0.579985,
2008-07-11, 03:00:00,VALID,916.856,VALID,0,VALID,100,VALID,-0.0169808,VALID,18.4696,VALID,185,VALID,0.526344,
2008-07-11, 03:01:00,VALID,916.838,VALID,0,VALID,100,VALID,-0.0679233,VALID,18.49,VALID,180,VALID,0.0509673,
2008-07-11, 03:02:00,VALID,916.835,VALID,0,VALID,100,VALID,-0.0849042,VALID,18.483,VALID,176,VALID,0.324963,
2008-07-11, 03:03:00,VALID,916.819,VALID,0,VALID,100,VALID,-0.0849042,VALID,18.48,VALID,171,VALID,0,
2008-07-11, 03:04:00,VALID,916.81,VALID,0,VALID,100,VALID,-0.0509425,VALID,18.4865,VALID,168,VALID,0,
2008-07-11, 03:05:00,VALID,916.798,VALID,0,VALID,100,VALID,-0.0339617,VALID,18.4733,VALID,172,VALID,0,
2008-07-11, 03:06:00,VALID,916.776,VALID,0,VALID,100,VALID,-0.0509425,VALID,18.4728,VALID,176,VALID,0.555233,
2008-07-11, 03:07:00,VALID,916.754,VALID,0,VALID,100,VALID,-0.0339617,VALID,18.4733,VALID,169,VALID,0.184659,
2008-07-11, 03:08:00,VALID,916.751,VALID,0,VALID,100,VALID,-0.0169808,VALID,18.4634,VALID,164,VALID,0.0912064,
2008-07-11, 03:09:00,VALID,916.737,VALID,0,VALID,100,VALID,0,VALID,18.4601,VALID,162,VALID,0.998798,
2008-07-11, 03:10:00,VALID,916.728,VALID,0,VALID,100,VALID,-0.0339617,VALID,18.4569,VALID,156,VALID,0.91678,
2008-07-11, 03:11:00,VALID,916.726,VALID,0,VALID,100,VALID,-0.118866,VALID,18.4451,VALID,158,VALID,1.03943,
2008-07-11, 03:12:00,VALID,916.724,VALID,0,VALID,100,VALID,-0.152827,VALID,18.4425,VALID,159,VALID,1.28782,
2008-07-11, 03:13:00,VALID,916.748,VALID,0,VALID,100,VALID,-0.152827,VALID,18.4423,VALID,150,VALID,1.16584,
2008-07-11, 03:14:00,VALID,916.756,VALID,0,VALID,100,VALID,-0.152827,VALID,18.4393,VALID,158,VALID,1.12593,
2008-07-11, 03:15:00,VALID,916.761,VALID,0,VALID,100,VALID,-0.20377,VALID,18.439,VALID,164,VALID,1.38388,
2008-07-11, 03:16:00,VALID,916.751,VALID,0,VALID,100,VALID,-0.118866,VALID,18.4358,VALID,148,VALID,0.83327,
2008-07-11, 03:17:00,VALID,916.773,VALID,0,VALID,100,VALID,-0.152827,VALID,18.436,VALID,150,VALID,1.0383,
2008-07-11, 03:18:00,VALID,916.757,VALID,0,VALID,100,VALID,-0.118866,VALID,18.4263,VALID,147,VALID,1.54925,
2008-07-11, 03:19:00,VALID,916.774,VALID,0,VALID,100,VALID,-0.118866,VALID,18.4325,VALID,157,VALID,0.772866,
2008-07-11, 03:20:00,VALID,916.781,VALID,0,VALID,100,VALID,-0.152827,VALID,18.4325,VALID,149,VALID,0.890253,
2008-07-11, 03:21:00,VALID,916.777,VALID,0,VALID,100,VALID,-0.118866,VALID,18.4228,VALID,153,VALID,0.889695,
2008-07-11, 03:22:00,VALID,916.775,VALID,0,VALID,100,VALID,-0.101885,VALID,18.4196,VALID,146,VALID,0.812872,
2008-07-11, 03:23:00,VALID,916.783,VALID,0,VALID,100,VALID,-0.135847,VALID,18.4193,VALID,163,VALID,1.05362,
2008-07-11, 03:24:00,VALID,916.779,VALID,0,VALID,100,VALID,-0.152827,VALID,18.4462,VALID,138,VALID,0.615189,
2008-07-11, 03:25:00,VALID,916.775,VALID,0,VALID,100,VALID,-0.135847,VALID,18.4358,VALID,132,VALID,0.116629,
2008-07-11, 03:26:00,VALID,916.761,VALID,0,VALID,100,VALID,-0.0339617,VALID,18.4279,VALID,171,VALID,0.063058,
2008-07-11, 03:27:00,VALID,916.759,VALID,0,VALID,100,VALID,-0.0339617,VALID,18.4277,VALID,195,VALID,0,
2008-07-11, 03:28:00,VALID,916.742,VALID,0,VALID,100,VALID,-0.0339617,VALID,18.4279,VALID,192,VALID,0,
2008-07-11, 03:29:00,VALID,916.738,VALID,0,VALID,100,VALID,-0.0169808,VALID,18.4251,VALID,148,VALID,0.189405,
2008-07-11, 03:30:00,VALID,916.734,VALID,0,VALID,100,VALID,-0.0339617,VALID,18.4082,VALID,133,VALID,0.864211,
2008-07-11, 03:31:00,VALID,916.735,VALID,0,VALID,100,VALID,-0.0509425,VALID,18.4117,VALID,133,VALID,0.160252,
2008-07-11, 03:32:00,VALID,916.744,VALID,0,VALID,100,VALID,-0.0169808,VALID,18.4017,VALID,133,VALID,0,
2008-07-11, 03:33:00,VALID,916.734,VALID,0,VALID,100,VALID,0.0169808,VALID,18.4017,VALID,133,VALID,0,
2008-07-11, 03:34:00,VALID,916.739,VALID,0,VALID,100,VALID,-0.0169808,VALID,18.3985,VALID,133,VALID,0,
2008-07-11, 03:35:00,VALID,916.754,VALID,0,VALID,100,VALID,0,VALID,18.392,VALID,133,VALID,0,
2008-07-11, 03:36:00,VALID,916.751,VALID,0,VALID,100,VALID,0,VALID,18.3918,VALID,133,VALID,0,
2008-07-11, 03:37:00,VALID,916.771,VALID,0,VALID,100,VALID,-0.0679233,VALID,18.386,VALID,133,VALID,0,
2008-07-11, 03:38:00,VALID,916.78,VALID,0,VALID,100,VALID,0,VALID,18.3793,VALID,133,VALID,0,